This is the latest recevied weather packets stored in our database for station/object HA2SKA-1. If no packets are shown the sender has not sent any weather packets the latest 10 day(s).
| Time | Temp. | Humidity | Pressure | Rain* | Wind** | Luminosity | Snow |
|---|---|---|---|---|---|---|---|
| 1777820460 | 25° C | 24% | 1019.4 hPa | - | - | - | - |
| 1777819560 | 25.56° C | 25% | 1019.5 hPa | - | - | - | - |
| 1777818660 | 26.11° C | 24% | 1019.6 hPa | - | - | - | - |
| 1777817760 | 26.11° C | 23% | 1019.7 hPa | - | - | - | - |
| 1777816859 | 25° C | 24% | 1019.8 hPa | - | - | - | - |
| 1777815959 | 25.56° C | 24% | 1020.1 hPa | - | - | - | - |
| 1777815059 | 26.11° C | 24% | 1020.2 hPa | - | - | - | - |
| 1777814159 | 25.56° C | 25% | 1020.3 hPa | - | - | - | - |
| 1777813259 | 25.56° C | 25% | 1020.4 hPa | - | - | - | - |
| 1777812359 | 25.56° C | 24% | 1020.6 hPa | - | - | - | - |
| 1777811459 | 26.11° C | 25% | 1020.8 hPa | - | - | - | - |
| 1777810559 | 26.11° C | 25% | 1021 hPa | - | - | - | - |
| 1777809659 | 25° C | 25% | 1021.1 hPa | - | - | - | - |
| 1777808758 | 25.56° C | 25% | 1021.4 hPa | - | - | - | - |
| 1777806968 | 25° C | 24% | 1021.5 hPa | - | - | - | - |
| 1777806068 | 24.44° C | 25% | 1021.7 hPa | - | - | - | - |
| 1777805167 | 25.56° C | 25% | 1021.8 hPa | - | - | - | - |
| 1777804267 | 25.56° C | 26% | 1022.2 hPa | - | - | - | - |
| 1777803367 | 23.89° C | 26% | 1022.1 hPa | - | - | - | - |
| 1777802467 | 25° C | 27% | 1022.3 hPa | - | - | - | - |
| 1777801567 | 23.89° C | 27% | 1022.4 hPa | - | - | - | - |
| 1777800667 | 23.89° C | 28% | 1022.5 hPa | - | - | - | - |
| 1777799767 | 24.44° C | 27% | 1022.5 hPa | - | - | - | - |
| 1777798867 | 23.89° C | 28% | 1022.5 hPa | - | - | - | - |
| 1777797967 | 23.89° C | 27% | 1022.6 hPa | - | - | - | - |
* Rain since midnight (hover to see other rain measurements)
** Current wind speed in m/s (hover to see current wind gust speed)